Date,TemperatureHighF,TemperatureAvgF,TemperatureLowF,DewpointHighF,DewpointAvgF,DewpointLowF,HumidityHigh,HumidityAvg,HumidityLow,PressureMaxIn,PressureMinIn,WindSpeedMaxMPH,WindSpeedAvgMPH,GustSpeedMaxMPH,PrecipitationSumIn
2014-1-1,46,34,20,30,24,15,87,67,48,29.99,29.89,8,2,12,0.00
2014-1-2,34,20,9,26,16,4,91,84,67,29.95,29.89,4,2,9,0.00
2014-1-3,28,11,-6,8,2,-9,86,67,39,29.98,29.85,5,2,7,0.04
2014-1-4,39,31,12,20,16,-2,79,54,22,29.97,29.93,14,9,19,0.02
2014-1-5,37,32,22,35,29,19,96,87,59,29.97,29.90,7,2,13,0.35
2014-1-6,17,-7,-12,14,-14,-19,87,70,60,29.96,29.89,10,5,16,0.00
2014-1-7,11,2,-12,1,-7,-18,78,66,53,30.01,29.88,11,6,14,0.00
2014-1-8,30,20,5,16,11,-1,80,70,57,30.03,29.93,7,4,10,0.01
2014-1-9,35,29,18,28,23,14,93,79,62,30.00,29.96,6,2,8,0.00
2014-1-10,48,40,30,46,39,29,97,95,92,29.98,29.95,9,2,12,0.06
2014-1-11,48,41,32,48,38,28,99,88,76,29.95,29.91,14,8,20,0.44
2014-1-12,45,38,29,34,30,27,93,75,63,30.00,29.93,10,6,14,0.00
2014-1-13,50,46,41,44,39,30,95,78,61,29.95,29.91,15,7,21,0.11
2014-1-14,48,37,25,38,30,19,95,77,51,29.97,29.93,11,5,16,0.05
2014-1-15,27,23,17,18,16,13,84,73,62,29.98,29.90,9,4,11,0.00
2014-1-16,28,23,13,22,18,8,88,82,75,29.95,29.87,12,7,16,0.00
2014-1-17,27,17,5,26,12,0,95,83,70,29.96,29.89,8,4,13,0.00
2014-1-18,25,19,6,21,14,1,91,80,62,29.93,29.89,10,5,13,0.00
2014-1-19,34,28,19,25,20,15,94,72,56,29.93,29.88,14,8,17,0.11
2014-1-20,45,36,30,30,25,22,76,66,51,29.97,29.85,12,3,12,0.00
2014-1-21,20,10,-4,11,1,-10,87,68,52,29.94,29.89,7,4,17,0.00
2014-1-22,13,4,-10,10,-3,-14,87,73,58,29.91,29.86,9,4,11,0.00
2014-1-23,10,3,-6,4,-7,-12,77,64,49,30.00,29.88,10,5,14,0.00
2014-1-24,19,7,-11,3,-4,-15,82,62,44,29.97,29.87,16,9,21,0.00
2014-1-25,36,21,6,24,12,-3,91,69,44,29.94,29.81,17,9,25,0.02
2014-1-26,45,29,3,28,16,-5,71,59,48,29.93,29.86,13,6,15,0.00
2014-1-27,40,8,-4,30,-4,-12,78,56,45,29.99,29.91,14,6,15,0.00
2014-1-28,13,0,-14,-6,-12,-20,74,56,40,29.97,29.91,4,1,6,0.00
2014-1-29,24,11,-7,3,-3,-14,75,54,38,29.98,29.88,10,4,14,0.01
2014-1-30,30,19,5,8,2,-4,68,50,32,29.96,29.91,17,7,19,0.00
2014-1-31,42,35,30,20,14,8,55,41,33,29.98,29.91,7,3,8,0.00
2014-2-1,52,44,31,42,31,23,89,62,44,29.97,29.92,10,4,14,0.01
2014-2-2,45,31,25,42,28,22,94,89,84,29.97,29.92,4,1,9,0.21
2014-2-3,40,27,16,23,18,11,86,70,46,29.97,29.88,4,1,6,0.00
2014-2-4,29,24,16,22,18,12,92,79,69,29.94,29.85,11,3,12,0.00
2014-2-5,27,24,21,26,20,18,95,86,78,29.98,29.84,7,3,11,0.19
2014-2-6,27,18,4,18,11,-4,87,75,60,29.95,29.92,7,3,10,0.00
2014-2-7,25,10,-6,4,-2,-10,80,58,39,29.99,29.89,5,2,7,0.00
2014-2-8,28,19,7,19,11,-3,85,70,61,29.99,29.92,6,3,8,0.00
2014-2-9,30,23,15,24,17,7,92,76,62,30.01,29.95,9,4,17,0.00
2014-2-10,29,16,3,13,6,-1,84,66,44,29.97,29.91,4,2,8,0.14
2014-2-11,30,14,-6,10,2,-10,81,61,37,30.00,29.90,4,2,6,0.05
2014-2-12,41,21,-1,15,7,-6,82,57,33,30.00,29.90,4,2,7,0.00
2014-2-13,49,34,13,15,10,5,73,40,17,29.94,29.88,6,3,10,0.00
2014-2-14,31,25,18,24,19,14,88,77,53,29.91,29.83,10,2,10,0.00
2014-2-15,34,21,13,21,14,10,87,73,48,29.99,29.90,6,2,8,0.21
2014-2-16,30,24,19,23,18,13,91,77,65,29.96,29.88,6,2,13,0.04
2014-2-17,34,27,14,33,22,10,96,81,63,29.94,29.88,15,5,21,0.33
2014-2-18,53,43,30,31,27,24,85,56,35,29.99,29.89,14,6,16,0.00
2014-2-19,53,44,35,37,32,27,91,64,47,30.02,29.90,12,4,16,0.00
2014-2-20,63,54,35,56,46,28,92,74,67,29.97,29.89,18,10,28,0.53
2014-2-21,47,39,32,43,22,14,87,54,29,29.99,29.91,18,9,21,0.02
2014-2-22,61,47,32,30,25,16,70,44,25,30.03,29.93,10,5,14,0.00
2014-2-23,36,32,22,31,24,13,90,74,56,29.98,29.91,6,2,10,0.00
2014-2-24,36,28,16,13,10,6,75,49,32,29.97,29.89,10,5,16,0.00
2014-2-25,32,26,20,18,15,12,77,64,53,29.96,29.91,7,3,11,0.00
2014-2-26,26,18,7,12,2,-1,72,51,34,29.94,29.89,9,5,13,0.00
2014-2-27,28,19,8,8,0,-7,65,44,28,29.99,29.84,13,6,18,0.00
2014-2-28,41,25,4,8,4,-3,75,44,22,30.00,29.90,8,3,11,0.00
2014-3-1,56,41,27,32,24,5,61,50,38,30.01,29.92,9,3,13,0.00
2014-3-2,34,23,14,24,19,11,90,86,67,29.99,29.94,4,0,4,0.01
2014-3-3,28,16,5,12,5,-3,86,61,41,29.97,29.88,0,0,0,0.09
2014-3-4,40,24,2,18,10,-3,79,59,37,30.03,29.89,6,1,8,0.02
2014-3-5,43,30,14,22,16,10,85,60,36,30.02,29.95,7,3,11,0.00
2014-3-6,53,35,16,24,19,10,77,54,30,29.99,29.90,6,2,8,0.00
2014-3-7,65,47,24,32,27,0,81,51,13,30.03,29.91,7,2,8,0.00
2014-3-8,59,46,32,37,32,26,83,62,38,30.01,29.96,8,3,10,0.00
2014-3-9,51,39,28,27,24,20,84,57,31,29.97,29.87,12,4,12,0.00
2014-3-10,62,51,33,40,35,23,81,56,39,29.93,29.82,13,7,18,0.00
2014-3-11,77,62,45,46,38,30,77,46,22,29.97,29.81,11,5,15,0.00
2014-3-12,59,35,21,51,30,13,96,82,46,29.93,29.84,13,6,27,0.30
2014-3-13,40,28,11,17,13,7,85,55,34,30.00,29.86,10,5,11,0.00
2014-3-14,62,50,30,36,28,16,63,45,28,29.98,29.92,22,12,33,0.00
2014-3-15,63,49,34,39,30,23,81,50,26,29.95,29.88,9,4,15,0.08
2014-3-16,38,30,25,27,17,9,75,58,42,29.94,29.83,11,5,14,0.00
2014-3-17,43,31,21,22,17,10,66,55,42,29.96,29.85,5,2,7,0.00
2014-3-18,58,44,24,38,32,19,83,64,47,29.98,29.90,11,5,16,0.00
2014-3-19,52,45,38,47,40,32,96,84,72,29.96,29.85,15,9,21,0.24
2014-3-20,54,44,29,33,28,22,78,57,42,30.00,29.94,10,5,14,0.00
2014-3-21,70,55,34,35,30,25,79,42,21,30.01,29.96,13,6,19,0.00
2014-3-22,58,46,34,34,30,24,74,54,37,29.96,29.91,9,4,11,0.00
2014-3-23,45,35,22,27,18,11,78,51,31,30.02,29.85,5,3,9,0.00
2014-3-24,45,32,15,15,12,9,79,46,25,30.00,29.91,6,2,9,0.00
2014-3-25,36,29,21,25,17,11,78,60,44,29.99,29.92,11,5,24,0.01
2014-3-26,45,32,12,17,10,7,82,44,21,30.03,29.94,7,4,11,0.00
2014-3-27,56,44,28,27,21,10,57,41,27,30.00,29.92,18,9,26,0.00
2014-3-28,60,51,39,50,42,34,92,71,49,29.95,29.87,21,7,21,0.11
2014-3-29,41,36,33,37,34,30,94,90,80,29.96,29.84,6,4,10,0.90
2014-3-30,62,44,24,34,29,22,93,59,30,30.02,29.92,4,2,8,0.00
2014-3-31,70,54,31,35,28,22,80,42,17,29.99,29.89,9,5,13,0.00
2014-4-1,74,64,53,41,29,16,47,29,11,29.98,29.88,17,9,24,0.00
2014-4-2,63,50,43,48,44,34,95,81,49,29.95,29.91,5,1,8,0.51
2014-4-3,63,55,49,60,54,48,99,95,85,29.92,29.87,10,5,14,0.54
2014-4-4,60,52,40,57,48,30,99,86,67,29.93,29.86,15,9,25,0.76
2014-4-5,57,45,35,33,29,25,70,55,36,29.99,29.91,12,3,12,0.00
2014-4-6,65,50,30,33,30,25,83,49,24,29.94,29.86,6,3,11,0.00
2014-4-7,52,48,42,51,43,31,97,85,54,29.88,29.78,8,3,11,0.81
2014-4-8,63,50,38,47,42,37,96,74,49,29.88,29.82,8,4,11,0.02
2014-4-9,64,52,35,39,34,29,85,53,28,29.91,29.83,8,3,14,0.00
2014-4-10,76,61,41,43,38,30,67,44,28,29.93,29.85,18,10,26,0.00
2014-4-11,76,64,50,53,44,29,84,49,27,30.00,29.90,9,4,17,0.04
2014-4-12,78,66,44,55,47,30,73,53,40,30.04,29.91,16,8,21,0.00
2014-4-13,81,72,63,58,52,45,67,49,33,30.07,29.98,16,12,21,0.00
2014-4-14,70,59,36,58,51,34,92,78,42,30.03,29.96,23,9,24,0.51
2014-4-15,41,34,25,33,23,16,94,66,43,29.97,29.88,10,3,14,0.14
2014-4-16,56,42,22,23,19,15,77,42,23,30.02,29.84,8,4,12,0.00
2014-4-17,70,54,34,37,30,21,61,41,26,29.99,29.91,11,5,14,0.00
2014-4-18,76,62,42,43,36,30,65,41,21,30.00,29.90,6,2,11,0.00
2014-4-19,74,60,42,44,37,31,77,45,23,30.01,29.92,7,4,11,0.00
2014-4-20,83,65,41,39,33,28,66,34,14,30.01,29.92,6,2,8,0.00
2014-4-21,80,67,47,50,43,33,67,44,26,30.01,29.90,8,3,13,0.00
2014-4-22,71,61,43,57,42,29,85,53,24,30.01,29.95,9,5,16,0.00
2014-4-23,68,53,33,37,32,27,81,47,25,29.98,29.91,4,2,8,0.00
2014-4-24,71,58,46,34,29,24,58,35,18,29.95,29.90,7,4,12,0.00
2014-4-25,69,59,50,55,45,26,91,65,29,29.95,29.86,10,4,16,0.15
2014-4-26,82,68,48,48,42,37,67,41,21,30.04,29.89,9,4,14,0.00
2014-4-27,79,64,46,45,41,35,68,45,27,30.02,29.91,8,4,12,0.00
2014-4-28,68,59,48,63,54,40,95,83,47,30.00,29.92,12,4,17,0.81
2014-4-29,75,63,51,60,54,44,97,74,42,30.00,29.92,13,7,20,0.33
2014-4-30,69,58,49,56,49,42,96,73,46,29.99,29.91,8,5,14,0.01
2014-5-1,58,52,41,42,37,34,84,58,43,29.96,29.89,12,7,18,0.00
2014-5-2,59,52,41,43,40,33,82,64,50,29.91,29.84,8,4,14,0.00
2014-5-3,72,55,42,44,37,28,82,55,21,29.94,29.85,10,4,18,0.00
2014-5-4,79,62,50,46,40,32,65,45,26,30.00,29.90,6,2,13,0.00
2014-5-5,78,60,45,49,41,27,66,50,34,29.97,29.87,5,3,9,0.00
2014-5-6,80,65,47,48,43,36,68,46,30,30.00,29.89,5,3,8,0.00
2014-5-7,86,73,51,60,54,43,79,53,37,30.09,29.95,10,5,18,0.00
2014-5-8,86,75,62,63,57,50,74,55,40,30.16,29.99,14,7,19,0.00
2014-5-9,75,69,61,62,58,51,80,67,53,30.09,29.99,14,7,17,0.01
2014-5-10,105,64,59,100,60,54,95,87,70,30.04,30.01,21,2,102,0.69
2014-5-11,85,70,53,68,61,53,99,77,51,30.09,29.99,8,3,11,0.14
2014-5-12,87,74,61,70,64,59,95,73,51,30.11,30.00,9,4,13,0.18
2014-5-13,86,75,-6,67,62,-8,92,67,42,30.13,30.03,13,6,17,0.00
2014-5-14,72,63,58,66,60,56,97,90,78,30.09,30.02,4,1,6,0.59
2014-5-15,63,50,40,62,46,37,98,84,73,30.01,29.93,10,4,15,0.43
2014-5-16,59,48,38,46,40,35,96,75,46,29.94,29.86,8,2,14,0.21
2014-5-17,60,51,40,45,39,35,96,67,39,29.94,29.87,6,2,11,0.07
2014-5-18,71,56,34,50,37,32,95,53,28,29.95,29.87,4,1,5,0.00
2014-5-19,76,62,39,46,41,35,86,50,30,29.99,29.89,5,2,10,0.00
2014-5-20,80,70,54,63,56,42,72,63,54,30.06,29.93,8,4,15,0.00
2014-5-21,84,70,62,69,61,55,91,72,57,30.06,29.99,15,3,15,0.14
2014-5-22,84,71,59,64,55,49,96,62,34,30.10,30.02,9,2,9,0.01
2014-5-23,82,67,50,53,48,45,85,53,30,30.03,29.93,4,1,8,0.00
2014-5-24,84,69,48,55,50,44,88,54,30,30.05,29.91,3,1,5,0.00
2014-5-25,88,73,54,59,53,49,87,51,31,30.09,29.95,5,2,8,0.00
2014-5-26,85,70,54,67,58,50,90,69,50,30.07,29.99,5,1,7,0.00
2014-5-27,90,76,64,69,63,61,90,68,41,30.11,30.05,8,2,8,0.00
2014-5-28,88,74,63,67,63,60,91,70,43,30.11,30.05,5,1,5,0.00
2014-5-29,82,71,64,70,65,61,94,83,60,30.11,30.05,4,0,4,0.31
2014-5-30,90,76,60,65,56,46,96,54,23,30.13,30.04,2,0,4,0.00
2014-5-31,90,76,60,59,53,48,75,47,25,30.13,29.95,5,1,8,0.00
2014-6-1,93,77,56,66,60,50,88,60,38,30.14,29.94,6,2,11,0.04
2014-6-2,80,74,67,68,66,65,94,78,64,30.12,30.03,10,5,14,0.11
2014-6-3,85,76,68,72,68,65,94,77,57,30.14,30.02,7,2,16,0.25
2014-6-4,82,70,63,73,65,58,98,86,65,30.07,29.97,7,2,15,1.43
2014-6-5,83,69,54,60,56,52,94,64,38,30.03,29.86,2,0,4,0.00
2014-6-6,87,72,51,58,52,48,92,53,28,30.05,29.86,2,0,5,0.00
2014-6-7,87,73,52,60,54,48,90,54,31,30.05,29.88,4,1,9,0.00
2014-6-8,76,68,62,65,60,55,89,75,56,30.05,29.98,8,3,14,0.04
2014-6-9,80,67,56,62,58,54,94,75,49,30.02,29.93,1,0,4,0.00
2014-6-10,79,68,61,68,63,57,95,86,68,30.02,29.92,1,0,3,0.43
2014-6-11,77,70,66,68,66,63,94,86,70,29.94,29.92,8,2,11,0.21
2014-6-12,66,63,61,64,62,60,98,96,94,29.93,29.89,0,0,0,0.00
2014-6-13,80,69,56,63,56,46,85,66,34,29.95,29.91,7,2,7,0.00
2014-6-14,84,64,44,53,47,40,89,57,31,29.94,29.89,4,1,4,0.00
2014-6-15,89,74,53,67,58,48,84,59,44,29.99,29.89,13,3,13,0.00
2014-6-16,91,80,68,71,67,59,80,66,51,30.03,29.91,6,2,11,0.00
2014-6-17,90,81,66,71,68,64,93,68,50,30.03,29.95,12,4,17,0.00
2014-6-18,92,81,69,73,68,63,92,66,45,30.05,29.95,7,3,13,0.00
2014-6-19,92,76,66,74,67,62,96,75,51,30.06,29.95,9,2,13,0.43
2014-6-20,86,73,65,74,70,64,99,88,63,30.01,29.95,4,0,8,0.09
2014-6-21,90,78,65,73,67,63,99,73,43,30.02,29.93,3,1,6,0.19
2014-6-22,92,78,64,71,67,61,94,71,48,30.02,29.94,5,2,7,0.00
2014-6-23,91,78,66,74,68,64,97,74,50,30.04,29.94,10,2,21,0.11
2014-6-24,86,74,66,72,69,65,97,84,59,30.02,29.95,9,2,12,0.33
2014-6-25,90,75,67,71,68,65,99,81,50,30.01,29.93,6,1,13,0.12
2014-6-26,92,78,63,75,66,62,99,70,42,30.03,29.95,2,0,4,0.00
2014-6-27,93,75,64,70,65,61,90,73,42,30.00,29.88,5,0,9,0.01
2014-6-28,70,69,68,66,65,64,91,88,80,29.90,29.90,0,0,0,0.00
2014-6-29,87,75,68,74,69,66,98,83,61,29.96,29.92,8,2,8,0.00
2014-6-30,90,76,66,75,70,64,97,83,61,29.95,29.92,8,2,8,0.00
2014-7-1,90,78,68,74,71,64,93,78,56,29.98,29.93,11,2,11,0.31
2014-7-2,84,71,63,69,66,62,96,83,60,29.97,29.94,9,2,9,0.15
2014-7-3,76,64,56,61,57,51,96,79,50,29.95,29.91,7,1,7,0.00
2014-7-4,85,65,48,55,51,46,94,66,34,29.91,29.87,7,1,7,0.00
2014-7-5,89,68,53,56,52,48,88,62,27,29.91,29.87,4,1,4,0.00
2014-7-6,84,72,57,63,58,53,88,63,41,29.97,29.80,7,3,12,0.00
2014-7-7,86,76,65,70,66,58,86,70,57,29.97,29.85,11,6,16,0.00
2014-7-8,84,75,68,70,66,64,93,75,58,29.98,29.87,10,4,21,0.05
2014-7-9,86,76,61,69,61,59,95,63,41,29.98,29.85,5,2,8,0.01
2014-7-10,88,74,58,62,59,55,89,61,37,29.98,29.81,2,0,7,0.00
2014-7-11,92,77,58,62,58,52,83,55,32,29.99,29.81,3,1,7,0.00
2014-7-12,86,76,60,70,65,57,89,71,55,30.00,29.91,6,2,11,0.00
2014-7-13,91,78,71,75,71,66,93,78,54,30.01,29.95,7,2,13,0.13
2014-7-14,87,74,64,72,68,60,99,83,54,29.99,29.94,10,2,22,0.45
2014-7-15,76,66,56,64,54,50,97,66,46,29.91,29.82,7,3,13,0.01
2014-7-16,77,66,50,59,53,49,95,67,41,29.87,29.78,5,1,8,0.00
2014-7-17,82,68,50,62,53,49,95,61,38,29.90,29.78,3,1,8,0.00
2014-7-18,77,66,54,60,57,51,93,74,52,29.88,29.76,2,0,4,0.07
2014-7-19,80,69,61,65,62,59,97,79,58,29.92,29.84,0,0,0,0.01
2014-7-20,88,75,60,69,65,59,97,72,50,29.98,29.83,0,0,3,0.00
2014-7-21,92,79,62,72,66,60,96,67,44,30.01,29.88,1,0,3,0.00
2014-7-22,95,82,64,72,68,63,94,65,41,30.04,29.95,5,1,10,0.00
2014-7-23,86,73,66,73,68,64,95,84,60,29.99,29.92,4,1,8,0.37
2014-7-24,82,69,58,64,57,53,92,68,44,29.92,29.77,2,0,8,0.00
2014-7-25,84,69,51,61,57,49,94,68,42,29.92,29.82,4,0,6,0.00
2014-7-26,86,74,62,72,66,59,93,79,61,29.95,29.86,7,2,11,0.05
2014-7-27,85,73,67,76,69,64,98,88,67,29.95,29.91,7,2,16,0.25
2014-7-28,76,69,58,61,58,50,84,69,55,29.94,29.89,6,3,11,0.00
2014-7-29,78,65,47,56,53,45,95,67,46,29.88,29.77,3,0,6,0.00
2014-7-30,81,70,55,63,59,53,96,69,48,29.94,29.81,6,2,10,0.00
2014-7-31,88,74,58,65,60,56,94,63,37,29.97,29.85,5,1,8,0.00
2014-8-1,91,73,59,67,61,57,94,69,37,29.97,29.86,1,0,3,0.00
2014-8-2,84,72,61,67,62,57,88,71,50,29.96,29.85,3,0,7,0.21
2014-8-3,90,74,58,66,60,55,96,65,34,29.97,29.84,4,0,7,0.00
2014-8-4,93,78,58,63,58,54,85,55,28,29.96,29.80,2,0,4,0.00
2014-8-5,84,74,60,68,63,58,93,70,49,29.95,29.83,4,0,7,0.00
2014-8-6,85,75,63,68,65,61,95,72,53,29.97,29.85,5,0,5,0.01
2014-8-7,86,73,59,62,58,55,90,62,40,29.94,29.81,2,0,4,0.00
2014-8-8,77,71,65,64,60,56,82,70,57,29.94,29.84,4,0,7,0.01
2014-8-9,86,74,63,69,65,59,92,74,56,29.99,29.91,3,0,6,0.00
2014-8-10,91,78,68,72,69,65,93,75,53,29.99,29.93,4,0,8,0.08
2014-8-11,88,76,68,72,69,66,98,80,53,29.98,29.93,6,2,10,0.01
2014-8-12,76,69,61,68,61,56,99,77,58,29.96,29.89,8,4,13,0.00
2014-8-13,84,71,55,59,55,51,94,61,35,29.95,29.84,6,2,11,0.00
2014-8-14,85,73,60,64,58,53,91,63,38,29.96,29.88,6,1,8,0.02
2014-8-15,87,69,49,53,46,36,88,50,17,29.92,29.77,4,0,7,0.00
2014-8-16,83,70,49,65,58,45,89,68,54,29.90,29.76,5,1,8,0.00
2014-8-17,80,73,66,69,66,62,90,79,68,29.95,29.89,3,0,7,0.02
2014-8-18,89,78,67,71,68,66,95,74,53,29.98,29.91,2,0,4,0.00
2014-8-19,93,79,64,72,68,62,98,72,45,29.98,29.91,8,2,11,0.00
2014-8-20,86,73,61,73,67,60,98,83,56,30.00,29.92,7,1,21,0.91
2014-8-21,88,75,66,76,71,65,99,88,66,29.99,29.93,3,0,6,0.12
2014-8-22,89,77,67,77,72,66,99,85,60,29.99,29.94,5,1,8,0.15
2014-8-23,97,81,67,76,72,67,99,77,48,30.00,29.94,1,0,4,0.00
2014-8-24,96,82,70,74,71,68,96,71,45,30.00,29.94,3,0,4,0.00
2014-8-25,96,82,67,74,70,65,94,70,45,30.02,29.95,1,0,4,0.00
2014-8-26,96,82,67,75,70,65,95,69,44,30.01,29.95,2,0,5,0.00
2014-8-27,94,81,67,74,70,66,96,72,49,30.01,29.95,3,0,8,0.00
2014-8-28,91,78,65,68,65,61,93,66,43,30.01,29.95,2,0,4,0.00
2014-8-29,96,80,63,71,66,59,88,64,42,30.00,29.95,5,1,9,0.00
2014-8-30,88,76,66,70,68,65,94,77,51,30.00,29.94,6,2,11,0.01
2014-8-31,84,75,68,73,70,67,99,84,65,30.00,29.94,7,2,9,0.35
2014-9-1,85,77,68,74,71,66,98,82,64,29.99,29.93,10,3,14,0.08
2014-9-2,83,72,64,71,67,63,99,84,63,29.99,29.93,5,1,8,0.93
2014-9-3,92,75,60,70,65,60,99,73,40,30.00,29.93,0,0,2,0.00
2014-9-4,94,78,60,73,68,59,98,74,45,30.01,29.94,0,0,2,0.00
2014-9-5,92,80,67,75,71,66,98,75,53,30.00,29.95,5,2,10,0.00
2014-9-6,78,69,59,70,64,57,97,83,70,30.00,29.90,6,1,8,0.01
2014-9-7,84,68,54,60,55,51,98,66,33,29.91,29.79,2,0,5,0.00
2014-9-8,90,72,53,57,53,50,90,57,28,29.93,29.79,0,0,4,0.00
2014-9-9,90,71,52,61,57,50,93,64,31,29.95,29.81,4,0,8,0.00
2014-9-10,82,74,62,72,68,57,94,82,70,29.96,29.87,13,6,18,0.00
2014-9-11,74,64,57,70,59,52,98,83,63,29.93,29.88,8,1,8,0.61
2014-9-12,66,60,54,55,53,50,88,77,65,29.93,29.87,1,0,3,0.00
2014-9-13,72,59,48,54,48,43,91,68,40,29.88,29.85,4,1,10,0.00
2014-9-14,78,60,43,52,48,41,94,67,36,29.86,29.81,1,0,5,0.00
2014-9-15,73,59,45,57,52,43,96,79,52,29.85,29.81,6,1,9,0.21
2014-9-16,60,57,54,55,52,49,97,84,74,29.84,29.82,0,0,2,0.02
2014-9-17,73,59,44,54,50,42,98,74,48,29.83,29.78,2,0,6,0.00
2014-9-18,79,63,47,53,49,45,96,65,34,29.86,29.77,2,0,7,0.00
2014-9-19,82,65,49,54,50,46,91,62,31,29.88,29.81,2,0,7,0.00
2014-9-20,83,70,52,66,61,48,94,75,56,29.96,29.83,9,3,13,0.00
2014-9-21,79,69,56,66,54,45,88,61,31,29.90,29.85,9,5,20,0.00
2014-9-22,72,56,42,47,43,38,91,65,38,29.87,29.81,3,1,6,0.00
2014-9-23,80,60,40,50,45,38,95,63,28,29.85,29.78,2,0,4,0.00
2014-9-24,86,66,47,56,49,42,85,59,30,29.91,29.80,4,0,6,0.00
2014-9-25,88,68,48,60,53,43,86,61,31,29.93,29.83,3,0,4,0.00
2014-9-26,89,70,54,56,52,49,90,58,27,29.96,29.86,3,0,4,0.00
2014-9-27,89,70,56,60,54,50,88,60,31,29.96,29.85,4,0,4,0.00
2014-9-28,87,71,55,63,58,49,83,65,43,29.93,29.82,3,0,6,0.00
2014-9-29,89,71,55,59,53,47,95,59,24,29.93,29.84,4,1,8,0.00
2014-9-30,82,65,52,61,54,46,83,68,49,29.88,29.76,3,0,6,0.00
2014-10-1,84,63,44,57,51,42,95,68,39,29.88,29.79,1,0,4,0.00
2014-10-2,88,72,54,62,57,48,91,63,37,29.90,29.81,12,3,16,0.00
2014-10-3,71,63,44,63,56,41,93,79,64,29.89,29.85,12,6,18,0.35
2014-10-4,50,45,40,40,33,28,89,64,48,29.87,29.75,10,4,16,0.00
2014-10-5,60,49,38,40,36,32,80,62,35,29.76,29.71,9,3,15,0.00
2014-10-6,64,52,45,56,48,40,96,86,69,29.75,29.70,9,3,16,0.35
2014-10-7,63,53,45,59,51,43,98,93,79,29.75,29.71,4,0,8,0.37
2014-10-8,72,58,45,52,46,41,99,69,35,29.80,29.73,8,2,12,0.01
2014-10-9,57,51,42,50,47,40,92,85,75,29.79,29.75,0,0,2,0.00
2014-10-10,53,50,48,50,48,46,96,93,88,29.79,29.75,0,0,3,0.28
2014-10-11,61,52,43,48,44,39,97,75,55,29.80,29.75,3,0,7,0.02
2014-10-12,65,54,40,55,47,37,92,77,60,29.79,29.73,4,0,7,0.02
2014-10-13,75,68,58,66,62,56,99,82,66,29.85,29.77,10,5,16,0.09
2014-10-14,70,61,54,62,57,50,97,88,69,29.86,29.82,11,4,18,0.63
2014-10-15,56,53,49,54,51,47,98,93,86,29.85,29.79,6,1,9,0.12
2014-10-16,62,55,50,56,52,48,99,89,74,29.81,29.77,2,0,8,0.06
2014-10-17,73,60,47,55,49,44,97,69,41,29.80,29.75,9,5,21,0.00
2014-10-18,55,50,44,45,43,41,90,79,67,29.83,29.78,7,3,16,0.02
2014-10-19,64,50,41,42,39,36,90,67,44,29.83,29.77,4,0,7,0.00
2014-10-20,65,54,41,52,46,36,90,76,60,29.80,29.75,14,4,15,0.00
2014-10-21,58,50,44,47,42,38,94,75,55,29.80,29.76,5,1,11,0.00
2014-10-22,59,48,38,43,39,34,87,72,52,29.79,29.75,4,1,7,0.00
2014-10-23,68,50,34,46,40,32,96,71,42,29.84,29.73,4,0,5,0.00
2014-10-24,72,55,37,47,41,35,94,63,31,29.81,29.76,5,1,8,0.00
2014-10-25,78,63,46,59,51,41,90,68,45,29.84,29.76,6,2,9,0.00
2014-10-26,76,59,41,46,30,22,72,38,14,29.83,29.77,6,1,8,0.00
2014-10-27,81,67,45,61,51,28,74,58,42,29.94,29.74,13,6,18,0.00
2014-10-28,68,60,49,60,54,44,91,79,67,29.89,29.85,11,4,14,0.17
2014-10-29,62,50,40,44,37,33,85,63,41,29.85,29.81,8,2,16,0.00
2014-10-30,61,46,33,38,34,30,90,66,39,29.83,29.78,4,1,8,0.00
2014-10-31,44,39,32,40,36,30,92,87,69,29.79,29.73,8,2,14,0.21
2014-11-1,47,35,26,33,27,21,93,75,55,29.85,29.73,9,3,14,0.02
2014-11-2,55,39,22,29,22,18,88,55,31,29.88,29.80,5,1,6,0.00
2014-11-3,64,51,33,31,24,18,69,39,17,29.83,29.78,12,6,14,0.00
2014-11-4,65,54,46,49,41,24,93,63,39,29.78,29.73,13,6,17,0.14
2014-11-5,58,50,41,48,44,39,95,81,61,29.77,29.75,5,0,5,0.00
2014-11-6,51,44,39,47,40,34,96,85,66,29.79,29.71,12,6,21,0.02
2014-11-7,50,40,32,34,29,25,86,67,45,29.83,29.77,12,1,12,0.00
2014-11-8,57,43,30,36,32,25,86,67,44,29.85,29.76,8,4,14,0.00
2014-11-9,56,44,30,31,27,24,84,54,31,29.85,29.78,9,4,115,0.00
2014-11-10,64,52,35,35,27,22,72,42,22,29.77,29.72,12,6,15,0.00
2014-11-11,64,50,34,51,39,29,91,69,43,29.77,29.71,12,7,17,0.12
2014-11-12,42,33,28,29,21,17,83,62,48,29.83,29.76,7,3,9,0.00
2014-11-13,28,25,18,17,10,6,64,54,44,29.83,29.79,10,4,13,0.00
2014-11-14,41,26,14,18,8,2,83,51,23,29.85,29.77,5,2,11,0.00
2014-11-15,42,28,12,17,11,5,77,50,28,29.87,29.78,6,1,8,0.00
2014-11-16,38,32,28,29,25,-21,90,76,10,29.84,29.80,5,1,7,0.01
2014-11-17,30,21,11,28,14,1,93,73,56,29.81,29.76,7,1,11,0.00
2014-11-18,24,16,7,5,1,-3,67,53,37,29.81,29.71,10,6,15,0.00
2014-11-19,41,29,9,21,14,0,69,52,39,29.84,29.74,14,9,23,0.07
2014-11-20,32,25,17,13,6,4,59,46,32,29.86,29.78,11,4,13,0.00
2014-11-21,39,26,8,8,2,-2,68,40,19,29.87,29.79,5,2,8,0.00
2014-11-22,61,46,25,36,27,2,73,50,37,29.87,29.78,12,6,17,0.01
2014-11-23,59,53,47,53,43,27,96,73,44,29.87,29.81,14,6,19,0.99
2014-11-24,58,46,34,55,39,25,97,76,64,29.80,29.75,23,12,27,0.20
2014-11-25,46,34,26,29,24,20,82,67,44,29.85,29.75,9,3,10,0.00
2014-11-26,39,31,21,26,22,17,89,70,51,29.85,29.78,4,0,6,0.00
2014-11-27,33,28,23,20,17,12,81,65,54,29.85,29.77,9,4,12,0.00
2014-11-28,33,28,23,16,13,10,71,52,41,29.88,29.81,9,4,11,0.00
2014-11-29,52,45,30,43,32,13,72,60,47,29.87,29.78,14,9,19,0.00
2014-11-30,64,60,54,53,50,45,88,69,60,29.90,29.86,15,9,26,0.13
2014-12-1,55,33,26,52,29,17,92,87,71,29.87,29.79,5,1,7,0.40
2014-12-2,33,31,25,32,26,17,95,82,69,29.88,29.77,3,0,4,0.00
2014-12-3,42,33,27,32,27,22,96,78,55,29.87,29.81,8,3,14,0.01
2014-12-4,34,31,25,30,29,22,95,92,86,29.85,29.83,1,0,4,0.13
2014-12-5,43,37,32,43,37,30,99,98,95,29.88,29.81,1,0,5,0.87
2014-12-6,43,37,31,43,34,24,99,91,71,29.88,29.83,8,2,11,0.50
2014-12-7,47,35,24,28,24,20,86,64,45,29.88,29.82,7,2,10,0.00
2014-12-8,48,40,30,35,28,22,82,64,50,29.85,29.81,8,5,11,0.00
2014-12-9,40,36,34,35,33,29,93,88,82,29.88,29.83,7,2,9,0.08
2014-12-10,34,32,30,29,23,19,84,69,62,29.86,29.84,4,1,8,0.00
2014-12-11,43,33,24,22,19,17,75,56,37,29.87,29.80,7,2,11,0.00
2014-12-12,46,33,21,28,24,16,87,70,36,29.85,29.79,8,3,11,0.00
2014-12-13,44,40,33,33,31,28,84,71,64,29.86,29.81,4,2,8,0.00
2014-12-14,44,42,40,37,35,32,85,77,70,29.88,29.84,5,2,6,0.00
2014-12-15,50,43,39,37,34,32,86,70,54,29.87,29.76,8,4,11,0.04
2014-12-16,48,40,32,46,37,29,95,88,81,29.84,29.76,11,7,17,0.28
2014-12-17,31,27,24,28,20,16,88,73,67,29.85,29.79,8,4,11,0.00
2014-12-18,29,25,23,17,16,15,77,67,60,29.86,29.80,3,0,4,0.00
2014-12-19,30,26,21,19,17,15,83,66,58,29.83,29.79,3,1,5,0.00
2014-12-20,31,29,27,23,20,18,76,70,65,29.84,29.80,1,0,4,0.00
2014-12-21,41,30,20,25,20,15,87,67,47,29.85,29.80,6,2,8,0.00
2014-12-22,48,41,25,37,30,19,82,66,51,29.83,29.78,6,2,8,0.06
2014-12-23,52,50,44,52,50,40,99,98,85,29.86,29.79,8,1,8,0.14
2014-12-24,53,45,36,53,44,32,99,95,83,29.83,29.75,15,5,104,0.19
2014-12-25,39,35,30,33,29,26,91,78,66,29.85,29.77,10,5,12,0.01
2014-12-26,54,41,28,37,32,26,96,72,48,29.86,29.79,9,5,13,0.00
2014-12-27,46,43,37,44,39,29,98,86,66,29.85,29.80,9,4,15,0.19
2014-12-28,43,32,26,43,28,23,98,84,70,29.84,29.81,8,0,8,0.05
2014-12-29,39,28,22,27,20,15,93,73,54,29.84,29.79,3,0,5,0.00
2014-12-30,39,27,18,19,13,8,78,57,36,29.86,29.78,3,1,8,0.01
2014-12-31,30,19,7,7,-3,-10,66,41,18,29.85,29.79,8,4,11,0.00
2015-1-1,38,28,15,13,6,-4,55,40,23,29.82,29.74,12,7,18,0.00
2015-1-2,40,33,25,26,21,12,73,60,46,29.88,29.79,6,2,8,0.00